Time,TemperatureF,DewpointF,PressureIn,WindDirection,WindDirectionDegrees,WindSpeedMPH,WindSpeedGustMPH,Humidity,HourlyPrecipIn,Conditions,Clouds,dailyrainin,SoftwareType,DateUTC
2013-04-27 00:14:00,44.9,43.0,30.18,SE,144,0.0,0.0,94,0.00,,,0.00,weatherlink.com 1.10,2013-04-27 07:14:00,
2013-04-27 00:29:00,45.2,44.0,30.18,SE,144,0.0,0.0,95,0.00,,,0.00,weatherlink.com 1.10,2013-04-27 07:29:00,
2013-04-27 00:44:00,45.8,45.0,30.18,SE,144,0.0,0.0,95,0.00,,,0.00,weatherlink.com 1.10,2013-04-27 07:44:00,
2013-04-27 00:59:00,46.1,45.0,30.18,SE,144,0.0,0.0,95,0.00,,,0.00,weatherlink.com 1.10,2013-04-27 07:59:00,
2013-04-27 01:14:00,46.3,45.0,30.18,SE,144,0.0,0.0,95,0.00,,,0.00,weatherlink.com 1.10,2013-04-27 08:14:00,
2013-04-27 01:29:00,46.2,45.0,30.18,SE,144,0.0,1.0,95,0.00,,,0.00,weatherlink.com 1.10,2013-04-27 08:29:00,
2013-04-27 01:44:00,46.5,45.0,30.18,SW,215,0.0,0.0,95,0.00,,,0.00,weatherlink.com 1.10,2013-04-27 08:44:00,
2013-04-27 01:59:00,46.7,45.0,30.17,SW,215,0.0,1.0,95,0.00,,,0.00,weatherlink.com 1.10,2013-04-27 08:59:00,
2013-04-27 02:14:00,46.7,45.0,30.17,SW,215,0.0,0.0,95,0.00,,,0.00,weatherlink.com 1.10,2013-04-27 09:14:00,
2013-04-27 02:29:00,46.9,46.0,30.17,SW,215,0.0,0.0,95,0.00,,,0.00,weatherlink.com 1.10,2013-04-27 09:29:00,
2013-04-27 02:44:00,46.9,46.0,30.17,South,178,0.0,1.0,95,0.00,,,0.00,weatherlink.com 1.10,2013-04-27 09:44:00,
2013-04-27 02:59:00,46.9,46.0,30.17,South,178,0.0,0.0,95,0.00,,,0.00,weatherlink.com 1.10,2013-04-27 09:59:00,
2013-04-27 03:14:00,46.8,46.0,30.17,South,178,0.0,0.0,95,0.00,,,0.00,weatherlink.com 1.10,2013-04-27 10:14:00,
2013-04-27 03:29:00,46.8,46.0,30.17,South,178,0.0,0.0,95,0.00,,,0.00,weatherlink.com 1.10,2013-04-27 10:29:00,
2013-04-27 03:44:00,46.7,45.0,30.17,SSW,193,0.0,0.0,95,0.00,,,0.00,weatherlink.com 1.10,2013-04-27 10:44:00,
2013-04-27 03:59:00,46.6,45.0,30.17,SSE,160,0.0,1.0,95,0.00,,,0.00,weatherlink.com 1.10,2013-04-27 10:59:00,
2013-04-27 04:14:00,46.6,45.0,30.17,South,178,0.0,0.0,95,0.00,,,0.00,weatherlink.com 1.10,2013-04-27 11:14:00,
2013-04-27 04:29:00,46.6,45.0,30.17,South,178,0.0,0.0,95,0.00,,,0.00,weatherlink.com 1.10,2013-04-27 11:29:00,
2013-04-27 04:44:00,46.5,45.0,30.17,South,178,0.0,0.0,95,0.00,,,0.00,weatherlink.com 1.10,2013-04-27 11:44:00,
2013-04-27 04:59:00,46.7,45.0,30.17,South,178,0.0,0.0,95,0.00,,,0.00,weatherlink.com 1.10,2013-04-27 11:59:00,
2013-04-27 05:14:00,46.5,45.0,30.17,South,178,0.0,0.0,95,0.00,,,0.00,weatherlink.com 1.10,2013-04-27 12:14:00,
2013-04-27 05:29:00,46.5,45.0,30.17,SSE,154,0.0,1.0,95,0.00,,,0.00,weatherlink.com 1.10,2013-04-27 12:29:00,
2013-04-27 05:44:00,46.5,45.0,30.17,SSE,154,0.0,0.0,95,0.00,,,0.00,weatherlink.com 1.10,2013-04-27 12:44:00,
2013-04-27 05:59:00,46.7,46.0,30.17,SSE,148,0.0,1.0,96,0.00,,,0.00,weatherlink.com 1.10,2013-04-27 12:59:00,
2013-04-27 06:14:00,46.6,46.0,30.18,SSE,148,0.0,0.0,96,0.00,,,0.00,weatherlink.com 1.10,2013-04-27 13:14:00,
2013-04-27 06:29:00,46.3,45.0,30.18,SSE,148,0.0,0.0,95,0.00,,,0.00,weatherlink.com 1.10,2013-04-27 13:29:00,
2013-04-27 06:44:00,46.4,45.0,30.18,SSE,148,0.0,0.0,95,0.00,,,0.00,weatherlink.com 1.10,2013-04-27 13:44:00,
2013-04-27 06:59:00,46.6,46.0,30.18,SSE,148,0.0,0.0,96,0.00,,,0.00,weatherlink.com 1.10,2013-04-27 13:59:00,
2013-04-27 07:14:00,46.8,46.0,30.18,SSE,148,0.0,1.0,96,0.00,,,0.00,weatherlink.com 1.10,2013-04-27 14:14:00,
2013-04-27 07:29:00,47.0,46.0,30.18,SSE,148,0.0,0.0,96,0.01,,,0.01,weatherlink.com 1.10,2013-04-27 14:29:00,
2013-04-27 07:44:00,47.2,46.0,30.19,SSE,148,0.0,0.0,96,0.01,,,0.01,weatherlink.com 1.10,2013-04-27 14:44:00,
2013-04-27 07:59:00,47.4,46.0,30.19,SSE,148,0.0,0.0,96,0.01,,,0.01,weatherlink.com 1.10,2013-04-27 14:59:00,
2013-04-27 08:14:00,47.6,47.0,30.19,East,91,0.0,1.0,96,0.01,,,0.01,weatherlink.com 1.10,2013-04-27 15:14:00,
2013-04-27 08:29:00,47.9,47.0,30.20,East,91,0.0,1.0,96,0.00,,,0.01,weatherlink.com 1.10,2013-04-27 15:29:00,
2013-04-27 08:44:00,48.1,47.0,30.20,East,84,0.0,0.0,96,0.00,,,0.01,weatherlink.com 1.10,2013-04-27 15:44:00,
2013-04-27 08:59:00,48.2,47.0,30.20,NNE,25,0.0,1.0,96,0.00,,,0.01,weatherlink.com 1.10,2013-04-27 15:59:00,
2013-04-27 09:14:00,48.4,47.0,30.20,NE,38,0.0,1.0,95,0.00,,,0.01,weatherlink.com 1.10,2013-04-27 16:14:00,
2013-04-27 09:29:00,48.8,48.0,30.20,North,5,0.0,1.0,96,0.00,,,0.01,weatherlink.com 1.10,2013-04-27 16:29:00,
2013-04-27 09:44:00,49.3,48.0,30.20,WNW,303,0.0,1.0,96,0.00,,,0.01,weatherlink.com 1.10,2013-04-27 16:44:00,
2013-04-27 09:59:00,50.4,49.0,30.20,WNW,293,0.0,1.0,96,0.00,,,0.01,weatherlink.com 1.10,2013-04-27 16:59:00,
2013-04-27 10:15:00,51.8,50.0,30.20,WNW,294,2.0,3.0,93,0.00,,,0.01,weatherlink.com 1.10,2013-04-27 17:15:00,
2013-04-27 10:30:00,52.6,50.0,30.20,West,279,0.0,2.0,89,0.00,,,0.01,weatherlink.com 1.10,2013-04-27 17:30:00,
2013-04-27 10:45:00,54.9,51.0,30.20,SSW,201,0.0,2.0,87,0.00,,,0.01,weatherlink.com 1.10,2013-04-27 17:45:00,
2013-04-27 11:00:00,55.6,51.0,30.20,West,267,1.0,5.0,85,0.00,,,0.01,weatherlink.com 1.10,2013-04-27 18:00:00,
2013-04-27 11:15:00,57.9,52.0,30.20,WSW,256,0.0,2.0,82,0.00,,,0.01,weatherlink.com 1.10,2013-04-27 18:15:00,
2013-04-27 11:30:00,59.4,53.0,30.19,WSW,239,0.0,4.0,79,0.00,,,0.01,weatherlink.com 1.10,2013-04-27 18:30:00,
2013-04-27 11:45:00,61.1,54.0,30.19,SW,236,0.0,3.0,76,0.00,,,0.01,weatherlink.com 1.10,2013-04-27 18:45:00,
2013-04-27 12:00:00,63.4,54.0,30.18,WSW,238,0.0,4.0,71,0.00,,,0.01,weatherlink.com 1.10,2013-04-27 19:00:00,
2013-04-27 12:15:00,64.4,54.0,30.18,West,266,0.0,4.0,70,0.00,,,0.01,weatherlink.com 1.10,2013-04-27 19:15:00,
2013-04-27 12:30:00,66.5,55.0,30.17,SW,231,2.0,4.0,67,0.00,,,0.01,weatherlink.com 1.10,2013-04-27 19:30:00,
2013-04-27 12:45:00,69.1,56.0,30.16,SSW,213,0.0,2.0,63,0.00,,,0.01,weatherlink.com 1.10,2013-04-27 19:45:00,
2013-04-27 13:00:00,70.2,57.0,30.16,SSE,149,1.0,4.0,63,0.00,,,0.01,weatherlink.com 1.10,2013-04-27 20:00:00,
2013-04-27 13:15:00,72.0,58.0,30.15,SW,223,0.0,4.0,61,0.00,,,0.01,weatherlink.com 1.10,2013-04-27 20:15:00,
2013-04-27 13:30:00,72.2,58.0,30.14,SSE,163,1.0,4.0,62,0.00,,,0.01,weatherlink.com 1.10,2013-04-27 20:30:00,
2013-04-27 13:45:00,73.3,59.0,30.14,WSW,253,2.0,5.0,61,0.00,,,0.01,weatherlink.com 1.10,2013-04-27 20:45:00,
2013-04-27 14:00:00,73.2,58.0,30.14,SW,236,0.0,4.0,59,0.00,,,0.01,weatherlink.com 1.10,2013-04-27 21:00:00,
2013-04-27 14:15:00,72.8,58.0,30.13,SW,215,0.0,4.0,60,0.00,,,0.01,weatherlink.com 1.10,2013-04-27 21:15:00,
2013-04-27 14:30:00,72.3,58.0,30.12,SW,223,0.0,4.0,60,0.00,,,0.01,weatherlink.com 1.10,2013-04-27 21:30:00,
2013-04-27 14:46:00,72.4,56.0,30.12,SW,221,1.0,5.0,57,0.00,,,0.01,weatherlink.com 1.10,2013-04-27 21:46:00,
2013-04-27 15:01:00,72.6,56.0,30.11,SSW,196,1.0,3.0,57,0.00,,,0.01,weatherlink.com 1.10,2013-04-27 22:01:00,
2013-04-27 15:16:00,72.8,57.0,30.10,SE,146,0.0,4.0,59,0.00,,,0.01,weatherlink.com 1.10,2013-04-27 22:16:00,
2013-04-27 15:31:00,71.6,56.0,30.10,SW,219,2.0,5.0,59,0.00,,,0.01,weatherlink.com 1.10,2013-04-27 22:31:00,
2013-04-27 15:46:00,70.9,57.0,30.09,WSW,241,1.0,5.0,61,0.00,,,0.01,weatherlink.com 1.10,2013-04-27 22:46:00,
2013-04-27 16:01:00,70.3,58.0,30.09,SW,219,0.0,6.0,65,0.00,,,0.01,weatherlink.com 1.10,2013-04-27 23:01:00,
2013-04-27 16:16:00,70.3,57.0,30.08,SSW,204,0.0,6.0,63,0.00,,,0.01,weatherlink.com 1.10,2013-04-27 23:16:00,
2013-04-27 16:31:00,69.7,57.0,30.07,SSW,202,0.0,5.0,64,0.00,,,0.01,weatherlink.com 1.10,2013-04-27 23:31:00,
2013-04-27 16:46:00,70.0,57.0,30.07,SSW,198,0.0,3.0,63,0.00,,,0.01,weatherlink.com 1.10,2013-04-27 23:46:00,
2013-04-27 17:01:00,70.0,55.0,30.07,South,186,1.0,5.0,60,0.00,,,0.01,weatherlink.com 1.10,2013-04-28 00:01:00,
2013-04-27 17:16:00,69.1,55.0,30.06,SW,228,0.0,3.0,62,0.00,,,0.01,weatherlink.com 1.10,2013-04-28 00:16:00,
2013-04-27 17:31:00,67.4,55.0,30.07,SSW,198,1.0,4.0,64,0.00,,,0.01,weatherlink.com 1.10,2013-04-28 00:31:00,
2013-04-27 17:46:00,66.5,54.0,30.06,SW,214,0.0,3.0,65,0.00,,,0.01,weatherlink.com 1.10,2013-04-28 00:46:00,
2013-04-27 18:01:00,66.6,54.0,30.06,South,190,1.0,1.0,65,0.00,,,0.01,weatherlink.com 1.10,2013-04-28 01:01:00,
2013-04-27 18:16:00,65.2,53.0,30.06,WSW,238,0.0,5.0,65,0.00,,,0.01,weatherlink.com 1.10,2013-04-28 01:16:00,
2013-04-27 18:31:00,63.0,53.0,30.05,SW,218,0.0,4.0,69,0.00,,,0.01,weatherlink.com 1.10,2013-04-28 01:31:00,
2013-04-27 18:46:00,61.5,52.0,30.05,WSW,238,1.0,4.0,71,0.00,,,0.01,weatherlink.com 1.10,2013-04-28 01:46:00,
2013-04-27 19:01:00,60.3,52.0,30.05,SSW,206,0.0,2.0,74,0.00,,,0.01,weatherlink.com 1.10,2013-04-28 02:01:00,
2013-04-27 19:16:00,59.1,52.0,30.05,SSW,196,0.0,2.0,76,0.00,,,0.01,weatherlink.com 1.10,2013-04-28 02:16:00,
2013-04-27 19:31:00,57.6,51.0,30.05,SSE,152,0.0,2.0,78,0.00,,,0.01,weatherlink.com 1.10,2013-04-28 02:31:00,
2013-04-27 19:46:00,55.9,50.0,30.05,SSE,155,0.0,1.0,81,0.00,,,0.01,weatherlink.com 1.10,2013-04-28 02:46:00,
2013-04-27 20:01:00,54.2,49.0,30.05,SSE,148,0.0,1.0,83,0.00,,,0.01,weatherlink.com 1.10,2013-04-28 03:01:00,
2013-04-27 20:16:00,52.7,48.0,30.05,SSE,149,0.0,1.0,85,0.00,,,0.01,weatherlink.com 1.10,2013-04-28 03:16:00,
2013-04-27 20:31:00,51.6,48.0,30.05,SSE,147,0.0,0.0,87,0.00,,,0.01,weatherlink.com 1.10,2013-04-28 03:31:00,
2013-04-27 20:46:00,50.8,47.0,30.05,SSE,147,0.0,0.0,88,0.00,,,0.01,weatherlink.com 1.10,2013-04-28 03:46:00,
2013-04-27 21:01:00,50.1,47.0,30.05,SSE,147,0.0,0.0,89,0.00,,,0.01,weatherlink.com 1.10,2013-04-28 04:01:00,
2013-04-27 21:16:00,49.5,47.0,30.05,SSE,147,0.0,0.0,90,0.00,,,0.01,weatherlink.com 1.10,2013-04-28 04:16:00,
2013-04-27 21:31:00,48.7,46.0,30.06,SSE,147,0.0,0.0,90,0.00,,,0.01,weatherlink.com 1.10,2013-04-28 04:31:00,
2013-04-27 21:46:00,48.1,46.0,30.05,SSE,147,0.0,0.0,91,0.00,,,0.01,weatherlink.com 1.10,2013-04-28 04:46:00,
2013-04-27 22:01:00,47.4,45.0,30.05,SSE,147,0.0,0.0,91,0.00,,,0.01,weatherlink.com 1.10,2013-04-28 05:01:00,
2013-04-27 22:16:00,47.0,45.0,30.05,SSE,147,0.0,0.0,92,0.00,,,0.01,weatherlink.com 1.10,2013-04-28 05:16:00,
2013-04-27 22:31:00,46.7,45.0,30.06,SSE,147,0.0,0.0,93,0.00,,,0.01,weatherlink.com 1.10,2013-04-28 05:31:00,
2013-04-27 22:46:00,46.4,45.0,30.05,SSE,147,0.0,0.0,93,0.00,,,0.01,weatherlink.com 1.10,2013-04-28 05:46:00,
2013-04-27 23:01:00,46.1,44.0,30.05,SSE,147,0.0,0.0,93,0.00,,,0.01,weatherlink.com 1.10,2013-04-28 06:01:00,
2013-04-27 23:16:00,45.7,44.0,30.05,SSE,147,0.0,0.0,93,0.00,,,0.01,weatherlink.com 1.10,2013-04-28 06:16:00,
2013-04-27 23:31:00,45.3,43.0,30.04,SSE,147,0.0,0.0,93,0.00,,,0.01,weatherlink.com 1.10,2013-04-28 06:31:00,
2013-04-27 23:46:00,45.1,44.0,30.04,SSE,147,0.0,0.0,94,0.00,,,0.01,weatherlink.com 1.10,2013-04-28 06:46:00,